User: anonymous   Login
Location: B?jaj?g
(11.7167°N, 92.6667°E)
Time: 06:26:27
(UTC+00:00)
Language:

Cosmos 1814 Rocket - Orbit

View from above orbital plane
View from above orbital plane
View from above satellite
View from above satellite

Ground track
Ground track

The orbit data is extracted from the following two-line orbital elements,

1 17304U 87006B   20339.55365101  .00000081  00000-0  35290-4 0  9991
2 17304  74.0587 282.8270 0029448 166.9507 193.2416 14.37716112775286
Epoch (UTC): 04 December 2020 13:17:15
Eccentricity: 0.0029448
inclination: 74.0587°
perigee height: 745 km
apogee height: 787 km
right ascension of ascending node: 282.8270°
argument of perigee: 166.9507°
revolutions per day: 14.37716112
mean anomaly at epoch: 193.2416°
orbit number at epoch: 77528

The dashed part of the orbit path shows where the satellite is in the earth's shadow,  

DLR